When you browse on this site, cookies collect data to enhance your experience and personalize the content and advertising you see.
Visit our Privacy Policy to learn more. By continuing to use the site, you agree to this use of cookies and data.
  • In Romania
  • List of Countries
  • For 7 days
  • Water Temperature
  • Weather Map
  • Weather Widgets
  • user-avatar
    Login

    Hourly Weather Mayrhofen

    Today, 21 October, Monday

    Time Temperature Precipitation Wind Pressure Humidity
    00:00 +7°C° 0 mm 3 mps 618 mmHg 91%
    01:00 +7°C° 0 mm 4 mps 618 mmHg 92%
    02:00 +7°C° 0.1 mm 4 mps 618 mmHg 93%
    03:00 +7°C° 0.1 mm 3 mps 618 mmHg 93%
    04:00 +7°C° 0.1 mm 3 mps 618 mmHg 93%
    05:00 +7°C° 0 mm 3 mps 618 mmHg 93%
    06:00 +7°C° 0 mm 3 mps 619 mmHg 93%
    07:00 +7°C° 0 mm 2 mps 619 mmHg 93%
    08:00 +8°C° 0.2 mm 2 mps 620 mmHg 91%
    09:00 +9°C° 0.2 mm 2 mps 620 mmHg 88%
    10:00 +10°C° 0.2 mm 2 mps 621 mmHg 85%
    11:00 +10°C° 0.2 mm 2 mps 621 mmHg 83%
    12:00 +11°C° 0.2 mm 3 mps 622 mmHg 81%
    13:00 +12°C° 0.2 mm 3 mps 622 mmHg 78%
    14:00 +11°C° 0 mm 3 mps 622 mmHg 80%
    15:00 +12°C° 0 mm 2 mps 622 mmHg 81%
    16:00 +12°C° 0 mm 2 mps 622 mmHg 83%
    17:00 +10°C° 0 mm 2 mps 622 mmHg 86%
    18:00 +9°C° 0 mm 2 mps 622 mmHg 90%
    19:00 +8°C° 0 mm 2 mps 621 mmHg 93%
    20:00 +8°C° 0 mm 2 mps 621 mmHg 93%
    21:00 +7°C° 0 mm 2 mps 621 mmHg 94%
    22:00 +7°C° 0 mm 2 mps 621 mmHg 94%
    23:00 +7°C° 0 mm 2 mps 622 mmHg 94%

    Tomorrow, 22 October, Tuesday

    Time Temperature Precipitation Wind Pressure Humidity
    00:00 +7°C° 0 mm 2 mps 622 mmHg 94%
    01:00 +7°C° 0 mm 2 mps 622 mmHg 94%
    02:00 +7°C° 0 mm 2 mps 622 mmHg 94%
    03:00 +7°C° 0 mm 2 mps 622 mmHg 94%
    04:00 +8°C° 0 mm 1 mps 621 mmHg 93%
    05:00 +7°C° 0 mm 1 mps 621 mmHg 92%
    06:00 +7°C° 0 mm 1 mps 621 mmHg 91%
    07:00 +7°C° 0 mm 1 mps 621 mmHg 90%
    08:00 +9°C° 0 mm 1 mps 622 mmHg 83%
    09:00 +11°C° 0 mm 1 mps 623 mmHg 76%
    10:00 +13°C° 0 mm 1 mps 623 mmHg 69%
    11:00 +14°C° 0 mm 1 mps 624 mmHg 65%
    12:00 +15°C° 0 mm 2 mps 624 mmHg 61%
    13:00 +16°C° 0 mm 2 mps 624 mmHg 58%
    14:00 +15°C° 0 mm 2 mps 624 mmHg 62%
    15:00 +14°C° 0 mm 2 mps 623 mmHg 66%
    16:00 +14°C° 0 mm 1 mps 623 mmHg 70%
    17:00 +12°C° 0 mm 2 mps 622 mmHg 75%
    18:00 +9°C° 0 mm 2 mps 622 mmHg 79%
    19:00 +8°C° 0 mm 2 mps 621 mmHg 84%
    20:00 +7°C° 0 mm 2 mps 621 mmHg 84%
    21:00 +7°C° 0 mm 2 mps 621 mmHg 84%
    22:00 +7°C° 0 mm 2 mps 621 mmHg 84%
    23:00 +7°C° 0 mm 3 mps 620 mmHg 83%

    Day after tomorrow, 23 October, Wednesday

    Time Temperature Precipitation Wind Pressure Humidity
    00:00 +7°C° 0 mm 3 mps 620 mmHg 83%
    01:00 +5°C° 0 mm 3 mps 620 mmHg 83%
    02:00 +5°C° 0 mm 3 mps 620 mmHg 82%
    03:00 +5°C° 0 mm 3 mps 620 mmHg 80%
    04:00 +5°C° 0 mm 3 mps 619 mmHg 79%
    05:00 +5°C° 0 mm 3 mps 619 mmHg 77%
    06:00 +5°C° 0 mm 3 mps 619 mmHg 75%
    07:00 +5°C° 0 mm 3 mps 619 mmHg 73%
    08:00 +8°C° 0 mm 3 mps 619 mmHg 66%
    09:00 +10°C° 0 mm 3 mps 620 mmHg 59%
    10:00 +13°C° 0 mm 3 mps 621 mmHg 52%
    11:00 +14°C° 0 mm 3 mps 621 mmHg 48%
    12:00 +16°C° 0 mm 3 mps 621 mmHg 45%
    13:00 +17°C° 0 mm 3 mps 621 mmHg 41%
    14:00 +16°C° 0 mm 3 mps 621 mmHg 46%
    15:00 +14°C° 0 mm 3 mps 620 mmHg 52%
    16:00 +13°C° 0 mm 3 mps 619 mmHg 57%
    17:00 +11°C° 0 mm 3 mps 619 mmHg 62%
    18:00 +9°C° 0 mm 3 mps 618 mmHg 68%
    19:00 +7°C° 0 mm 3 mps 618 mmHg 73%
    20:00 +7°C° 0 mm 3 mps 617 mmHg 75%
    21:00 +7°C° 0 mm 3 mps 617 mmHg 77%
    22:00 +5°C° 0 mm 4 mps 617 mmHg 80%
    23:00 +5°C° 0 mm 4 mps 617 mmHg 80%

    24 October, Thursday

    Time Temperature Precipitation Wind Pressure Humidity
    00:00 +5°C° 0 mm 4 mps 617 mmHg 81%
    01:00 +5°C° 0 mm 4 mps 617 mmHg 82%
    02:00 +5°C° 0 mm 4 mps 617 mmHg 81%
    03:00 +5°C° 0 mm 3 mps 616 mmHg 79%
    04:00 +5°C° 0 mm 3 mps 616 mmHg 78%
    05:00 +5°C° 0 mm 3 mps 616 mmHg 74%
    06:00 +5°C° 0 mm 3 mps 616 mmHg 71%
    07:00 +5°C° 0 mm 3 mps 616 mmHg 67%
    08:00 +8°C° 0 mm 3 mps 617 mmHg 63%
    09:00 +10°C° 0 mm 3 mps 618 mmHg 59%
    10:00 +12°C° 0 mm 3 mps 619 mmHg 55%
    11:00 +13°C° 0 mm 3 mps 619 mmHg 53%
    12:00 +14°C° 0 mm 3 mps 620 mmHg 51%
    13:00 +16°C° 0 mm 2 mps 620 mmHg 49%
    14:00 +15°C° 0 mm 2 mps 620 mmHg 54%
    15:00 +14°C° 0 mm 2 mps 619 mmHg 58%
    16:00 +13°C° 0 mm 2 mps 619 mmHg 63%
    17:00 +10°C° 0 mm 2 mps 618 mmHg 68%
    18:00 +9°C° 0 mm 2 mps 618 mmHg 73%
    19:00 +8°C° 0 mm 1 mps 617 mmHg 78%
    20:00 +7°C° 0 mm 1 mps 617 mmHg 78%
    21:00 +7°C° 0 mm 1 mps 618 mmHg 79%
    22:00 +7°C° 0 mm 1 mps 618 mmHg 79%
    23:00 +7°C° 0 mm 1 mps 618 mmHg 81%

    25 October, Friday

    Time Temperature Precipitation Wind Pressure Humidity
    00:00 +6°C° 0 mm 1 mps 618 mmHg 82%
    01:00 +6°C° 0 mm 1 mps 618 mmHg 84%
    02:00 +6°C° 0 mm 1 mps 618 mmHg 86%
    03:00 +5°C° 0 mm 1 mps 618 mmHg 87%
    04:00 +5°C° 0 mm 1 mps 618 mmHg 89%
    05:00 +5°C° 0 mm 1 mps 618 mmHg 89%
    06:00 +5°C° 0 mm 1 mps 618 mmHg 90%
    07:00 +5°C° 0 mm 1 mps 619 mmHg 90%
    08:00 +7°C° 0 mm 1 mps 620 mmHg 85%
    09:00 +9°C° 0 mm 1 mps 621 mmHg 79%
    10:00 +11°C° 0 mm 1 mps 622 mmHg 74%
    11:00 +12°C° 0 mm 1 mps 622 mmHg 69%
    12:00 +13°C° 0 mm 1 mps 623 mmHg 64%
    13:00 +15°C° 0 mm 1 mps 623 mmHg 60%
    14:00 +14°C° 0 mm 1 mps 623 mmHg 64%
    15:00 +14°C° 0 mm 1 mps 622 mmHg 67%
    16:00 +13°C° 0 mm 1 mps 622 mmHg 71%
    17:00 +11°C° 0 mm 1 mps 621 mmHg 77%
    18:00 +9°C° 0 mm 1 mps 621 mmHg 83%
    19:00 +7°C° 0 mm 1 mps 620 mmHg 89%
    20:00 +7°C° 0 mm 1 mps 620 mmHg 88%
    21:00 +7°C° 0 mm 1 mps 620 mmHg 87%
    22:00 +6°C° 0 mm 2 mps 621 mmHg 87%
    23:00 +6°C° 0 mm 2 mps 620 mmHg 87%

    26 October, Saturday

    Time Temperature Precipitation Wind Pressure Humidity
    00:00 +5°C° 0 mm 2 mps 620 mmHg 87%
    01:00 +5°C° 0 mm 2 mps 620 mmHg 87%
    02:00 +5°C° 0 mm 2 mps 620 mmHg 86%
    03:00 +5°C° 0 mm 2 mps 620 mmHg 84%
    04:00 +4°C° 0 mm 2 mps 619 mmHg 83%
    05:00 +4°C° 0 mm 2 mps 619 mmHg 80%
    06:00 +4°C° 0 mm 2 mps 619 mmHg 77%
    07:00 +4°C° 0 mm 2 mps 619 mmHg 74%
    08:00 +7°C° 0 mm 2 mps 620 mmHg 64%
    09:00 +10°C° 0 mm 1 mps 622 mmHg 55%
    10:00 +13°C° 0 mm 1 mps 623 mmHg 45%
    11:00 +14°C° 0 mm 1 mps 623 mmHg 41%
    12:00 +15°C° 0 mm 1 mps 623 mmHg 37%
    13:00 +16°C° 0 mm 1 mps 624 mmHg 32%
    14:00 +15°C° 0 mm 1 mps 623 mmHg 40%
    15:00 +13°C° 0 mm 0 mps 622 mmHg 47%
    16:00 +12°C° 0 mm 0 mps 622 mmHg 55%
    17:00 +10°C° 0 mm 0 mps 621 mmHg 58%
    18:00 +7°C° 0 mm 0 mps 620 mmHg 62%
    19:00 +5°C° 0 mm 0 mps 620 mmHg 65%
    20:00 +6°C° 0 mm 1 mps 620 mmHg 64%
    21:00 +6°C° 0 mm 1 mps 620 mmHg 63%
    22:00 +6°C° 0 mm 1 mps 620 mmHg 61%
    23:00 +6°C° 0 mm 1 mps 620 mmHg 60%

    27 October, Sunday

    Time Temperature Precipitation Wind Pressure Humidity
    00:00 +6°C° 0 mm 1 mps 620 mmHg 59%
    01:00 +5°C° 0 mm 1 mps 620 mmHg 58%
    02:00 +5°C° 0 mm 1 mps 620 mmHg 59%
    03:00 +5°C° 0 mm 1 mps 620 mmHg 59%
    04:00 +5°C° 0 mm 1 mps 620 mmHg 60%
    05:00 +5°C° 0 mm 1 mps 620 mmHg 61%
    06:00 +5°C° 0 mm 1 mps 620 mmHg 63%
    07:00 +5°C° 0 mm 1 mps 620 mmHg 64%
    08:00 +7°C° 0 mm 1 mps 621 mmHg 58%
    09:00 +10°C° 0 mm 1 mps 622 mmHg 52%
    10:00 +13°C° 0 mm 1 mps 623 mmHg 45%
    11:00 +14°C° 0 mm 1 mps 624 mmHg 44%
    12:00 +14°C° 0 mm 1 mps 624 mmHg 43%
    13:00 +15°C° 0 mm 1 mps 624 mmHg 42%
    14:00 +14°C° 0 mm 1 mps 623 mmHg 49%
    15:00 +13°C° 0 mm 1 mps 623 mmHg 56%
    16:00 +12°C° 0 mm 1 mps 622 mmHg 64%
    17:00 +9°C° 0 mm 0 mps 621 mmHg 70%
    18:00 +7°C° 0 mm 0 mps 621 mmHg 77%
    19:00 +5°C° 0 mm 0 mps 620 mmHg 83%
    20:00 +5°C° 0 mm 0 mps 620 mmHg 82%
    21:00 +5°C° 0 mm 0 mps 620 mmHg 80%
    22:00 +6°C° 0 mm 1 mps 620 mmHg 79%
    23:00 +6°C° 0 mm 1 mps 620 mmHg 77%
    Show more